Погода в Константиновске

Погода в Константиновске : погода сейчас, прогноз погоды и архив. Всё, что Вы хотите узнать о погоде в Константиновске!

Поиск расширенной информации на нашем сайте:

Другие новости

Новости СМИ2

Главная страница сайта

Новости сайта

03.07.2017

Напоминаем, что на нашем специализированном сайте Метеоцентр.Азия вы можете получить высокодетализированные автоматические прогнозы погоды по пунктам России, СНГ и мира в авиационном формате (включающие направление и скорость ветра, видимость, явления погоды, количество и форму облачности, нижнюю и верхнюю границу облачности).


Погода в Константиновске - сегодня

Время (UTC), дата Ветер
(°,м/с) 
Видим.   Явления Облачность Т
(°С)
Тd
(°С)
f(%) Тe
(°С)
Pmin
(гПа)
dP
(гПа)
Po
(мм)
O2
(г/м3)
Тmin Tmax R s Состояние
почвы
09 20.01.18 160 (Ю) 4000 м  дымка  10/10 600 м 
[Cu Sc]
-3.7 -4.5 94 -3  1020.5  0.3  759  311           
12 20.01.18 130 (ЮВ) 4000 м  дымка  10/10 600 м 
[Cu Sc]
-3.1 -3.8 95 -4  1019.8  -0.7  759  310           
15 20.01.18 110 (В) 4000 м  дымка  10/10 600 м 
[Cu Sc]
-1.9 -2.8 94 -3  1019.1  -0.7  758  308    -1.9       
18 20.01.18 090 (В) 3{06}  4000 м  дымка  4/0 средняя 
[Ac trans]
-1.6 -2.4 94 -4  1017.8  -1.3  757  307           
21 20.01.18 090 (В) 4000 м  дымка  8/5 600 м средняя 
[Cu Sc|Ac trans]
-1.7 -2.5 94 -3  1016.9  -0.8  757  307           
00 21.01.18 080 (В) 4000 м  дымка  8/4 600 м средняя 
[Cu Sc|Ac trans]
-1.4 -2.4 93 -4  1014.9  -0.2  755  306           
03 21.01.18 090 (В) 4000 м  дымка  10/10 600 м 
[Cu Sc]
-0.1 -2 87 -3  1013.1  -1.8  754  304  -1.7         
06 21.01.18 120 (ЮВ) 10 км    10/10 600 м 
[Cu Sc]
+0.9 -0.8 88 -1  1011.5  -1.5  753  302           
09 21.01.18 120 (ЮВ) 10 км    10/10 600 м 
[Cu Sc]
+0.8 -0.3 92 -1  1010.3  -1.2  752  302           
12 21.01.18 110 (В) 4000 м  дымка{ливн. осадки}  10/10 600 м 
[Cu Sc]
+0.5 -0.1 96 -1  1009.3  -1  751  302           
15 21.01.18 180 (Ю) 4000 м  дымка{ливн. осадки}  10/10 600 м 
[Cu Sc]
+1.5 +0.7 94 1010.7  1.3  752  301    +1.5     
18 21.01.18 290 (З) 4000 м  дымка{ливн. осадки}  10/6 600 м средняя 
[Cu Sc|Ac As]
+1.5 +0.7 94 -1  1014.9  4.3  755  303           
21 21.01.18 330 (СЗ) 4000 м  дымка  10/5 600 м средняя 
[Cu Sc|Ac As]
-0.7 -2.5 88 -2  1016.7  1.6  757  306           
00 22.01.18 050 (СВ) 4000 м  дымка  10/5 600 м средняя 
[Cu Sc|Ac As]
-1.9 -3.7 87 -1  1017.1  0.4  757  308           
03 22.01.18 050 (СВ) 10 км    8/8 600 м 
[Cu Sc]
-3 -4.7 88 -4  1017.3  0.2  757  309  -3.4      неравномерный
мокрый или
старый снег
100% 
06 22.01.18 080 (В) 4000 м  дымка  10/10 600 м 
[Cu Sc]
-2.6 -3.9 91 -5  1016.5  -0.9  756  308           
09 22.01.18 060 (СВ) 4000 м  дымка  10/8 600 м средняя 
[Cu Sc|Ac As]
-1.3 -2.7 90 -2  1015.9  -0.5  756  306           
12 22.01.18 060 (СВ) 5{10}  4000 м  дымка  10/10 600 м кучево-дожд. 
[Cb calv]
-1.1 -2.6 90 -4  1013.8  -2.1  754  306           
15 22.01.18 070 (В) 4000 м  дымка  10/10 600 м кучево-дожд. 
[Cb calv]
-1.2 -1.8 96 -4  1013.3  -0.4  754  305    -1       
18 22.01.18 080 (В) 4{13}  4000 м  дымка  10/10 600 м кучево-дожд. 
[Cb calv]
-0.6 -1.2 96 -3  1012.8  -0.6  754  304           
21 22.01.18 070 (В) 4000 м  дымка  10/10 300 м кучево-дожд. 
[Cb calv]
-0.5 -0.9 97 -3  1011.8  -0.9  753  304           
00 23.01.18 080 (В) 2000 м  дымка  10/8 600 м средняя 
[Cu Sc|Ac As]
-0.9 -1.2 98 -3  1010.6  -1.2  752  304           
03 23.01.18 080 (В) 5-10{10}  4000 м  дымка  10/8 600 м средняя 
[Cu Sc|Ac As]
-1.4 -1.9 96 -5  1009.7  -0.9  751  305  -1.4      неравномерный
мокрый или
старый снег
100% 
06 23.01.18 100 (В) 3{10}  4000 м  дымка  10/10 600 м 
[Cu Sc]
-1.3 -1.8 96 -3  1010.8  1.1  752  305  -1.4         
09 23.01.18 090 (В) 4{10}  2000 м  дымка  10/10 600 м 
[Cu Sc]
-1.5 -2 96 -4  1010.8  752  305           
Время (UTC), дата Ветер
(°,м/с) 
Видим.   Явления Облачность Т
(°С)
Тd
(°С)
f(%) Тe
(°С)
Pmin
(гПа)
dP
(гПа)
Po
(мм)
O2
(г/м3)
Тmin Tmax R s Состояние
почвы

Для получения пояснительной информации подведите курсор к названию столбца.

ПОГОДА в Константиновске - архив

Всё, что Вы хотите узнать о погоде в Константиновске - удобно и подробно!

Выберите нужную дату (начиная с 1 января 2015* года) и нажмите кнопку "Найти".
Будут отображены архивные сводки погоды по пункту Константиновск, начиная с указанной даты.


Отображать данные в формате CSV (для использования в таблицах Excel)


Внимание! Наш архив погоды предназначен исключительно для личного некоммерческого использования в познавательных целях. Если Вам необходимы официальные справки о состоянии погоды (для производственных, юридических, коммерческих и т.п. целей), обращайтесь в органы Росгидромета.

*Примечание: данная дата относится к архиву по метеостанциям СССР (Россия, СНГ, Балтия).
Архив по метеостанциям Зарубежной Европы и Азии (кроме Китая) хранится 10 дней, по другим регионам земного шара (Китай, Африка, Америка, Австралия, Океания) - 1 день.

Константиновск - район местоположения метеостанции


Название, широта, долгота, высота метеостанции:
Константиновск 47.6°ш. 41.1°д. 66 м над ур. моря [Российская Федерация]

Дополнительная информация

В oтличие oт бoльшинства пoгoдных сайтoв мы публикуем пoдрoбную метеoинфoрмацию в детальнoм прoфессиoнальнoм фoрмате.

Характеристики температуры и влажнoсти вoздуха измеряются на высoте 2 м в тени вдали oт зданий и деревьев.
Скoрoсть ветра измеряется на высoте 10 м (на урoвне рoста челoвека скoрoсть ветра ниже в 1.5-2 раза). Если метеoстанция нахoдится в гoрoде или в лесу, тo скoрoсть ветра занижена на 2-4 м/с пo сравнению с oткрытым местoм. Скoрoсть ветра над акватoриями крупных рек и oзёр, а также на вершинах хoлмoв на 2-5 м/с выше, чем в oбычных услoвиях.
Атмoсфернoе давление в разных тoчках местнoсти мoжет значительнo oтличаться oт давления на метеoстанции, в зависимoсти oт услoвий рельефа (при пoдъёме на 10 м давление пoнижается примернo на 1 мм рт.ст.).